Date,TemperatureHighF,TemperatureAvgF,TemperatureLowF,DewpointHighF,DewpointAvgF,DewpointLowF,HumidityHigh,HumidityAvg,HumidityLow,PressureMaxIn,PressureMinIn,WindSpeedMaxMPH,WindSpeedAvgMPH,GustSpeedMaxMPH,PrecipitationSumIn
2013-1-1,45,41,38,34,31,27,71,67,61,29.98,29.86,0,0,0,0.00
2013-1-2,41,36,31,32,25,20,72,63,50,30.20,29.96,3,0,5,0.00
2013-1-3,40,32,27,25,22,20,77,65,51,30.21,30.11,2,0,3,0.00
2013-1-4,45,36,30,28,24,22,72,62,50,30.17,30.06,5,1,9,0.00
2013-1-5,46,38,31,30,26,21,70,61,51,30.34,30.10,4,0,4,0.00
2013-1-6,53,43,33,36,32,28,84,67,49,30.17,29.98,3,0,3,0.00
2013-1-7,50,43,33,33,30,25,72,61,50,30.40,30.10,4,0,5,0.00
2013-1-8,53,40,30,38,31,24,82,70,53,30.39,30.33,5,0,7,0.00
2013-1-9,50,42,33,42,36,28,86,78,61,30.34,30.19,3,0,5,0.00
2013-1-10,56,47,39,37,33,29,69,59,46,30.55,30.32,3,0,5,0.00
2013-1-11,46,42,37,42,36,30,91,79,65,30.47,30.06,2,0,2,0.04
2013-1-12,57,48,44,51,45,42,93,87,78,30.14,30.06,2,0,3,0.04
2013-1-13,51,47,44,49,46,42,96,93,87,30.10,29.94,3,0,5,0.02
2013-1-14,58,53,44,57,50,40,98,90,74,30.26,29.91,5,0,6,0.14
2013-1-15,44,41,38,41,39,36,94,93,88,30.30,30.12,3,0,5,0.75
2013-1-16,42,39,37,41,38,35,97,95,94,30.12,29.83,6,0,6,0.73
2013-1-17,44,42,39,41,38,35,97,89,81,30.08,29.93,3,0,6,0.04
2013-1-18,40,36,31,35,26,19,86,68,50,30.46,29.99,4,0,10,0.00
2013-1-19,55,42,31,36,28,20,74,60,43,30.40,29.94,5,2,9,0.00
2013-1-20,60,47,38,38,28,19,65,49,31,30.05,29.78,6,2,19,0.00
2013-1-21,44,37,33,31,24,18,66,57,48,30.07,29.77,4,0,7,0.00
2013-1-22,32,25,20,18,6,2,56,46,37,30.25,29.87,5,2,12,0.00
2013-1-23,28,23,17,9,7,4,62,50,39,30.31,30.12,6,0,8,0.00
2013-1-24,31,24,19,17,12,7,77,60,44,30.47,30.06,5,0,5,0.02
2013-1-25,25,22,18,18,11,7,80,65,50,30.47,30.04,0,0,2,0.02
2013-1-26,37,29,23,25,21,18,81,73,59,30.39,30.05,0,0,4,0.06
2013-1-27,41,30,22,26,21,16,82,70,53,30.55,30.39,2,0,3,0.02
2013-1-28,41,36,30,38,32,22,91,85,73,30.47,30.00,3,0,7,0.12
2013-1-29,67,50,37,57,45,35,95,84,67,30.10,29.96,4,1,6,0.02
2013-1-30,70,60,48,63,56,44,94,86,76,29.96,29.23,6,2,14,0.45
2013-1-31,57,42,32,55,28,20,94,59,44,29.88,29.19,5,2,14,1.20